Weather History for Flint, MI

Change the Weather History Date:

Saturday, September 22, 2012

  Actual Average Record
Temperature  
Mean Temperature 52 °F 59 °F  
Max Temperature 61 °F 70 °F 90 °F (1941)
Min Temperature 42 °F 47 °F 30 °F (1999)
Degree Days  
Heating Degree Days 13 7  
Month to date heating degree days 82 93  
Since 1 July heating degree days 93 137  
Cooling Degree Days 0 1  
Month to date cooling degree days 65 41  
Year to date cooling degree days 853 518  
Growing Degree Days 2 (Base 50)    
Moisture  
Dew Point 42 °F    
Average Humidity 70    
Maximum Humidity 93    
Minimum Humidity 46    
Precipitation  
Precipitation T in 0.14 in 3.62 in (2005)
Month to date precipitation 2.56 2.80  
Year to date precipitation 24.28 23.36  
Snow  
Snow 0.00 in 0.00 in 0.00 in ()
Month to date snowfall 0.0 0.0  
Since 1 July snowfall 0.0 0.0  
Since 1 September snowfall 0.0 0.0  
Snow Depth 0.00 in    
Sea Level Pressure  
Sea Level Pressure 29.86 in    
Wind  
Wind Speed 9 mph (West)    
Max Wind Speed 21 mph    
Max Gust Speed 30 mph    
Visibility 10 miles    
Events Rain    
T = Trace of Precipitation, MM = Missing Value Source: NWS Daily Summary

Daily Weather History Graph

Daily Weather History Graph

Search for Another Location

Airport:

Trip Planner

Search our weather history database for the weather conditions in past years. The results will help you decide how hot, cold, wet, or windy it might be!

Date:

Astronomy

Sep. 22, 2012 Rise Set
Actual Time 7:22 AM EDT 7:31 PM EDT
Civil Twilight 6:54 AM EDT 7:59 PM EDT
Nautical Twilight 6:21 AM EDT 8:32 PM EDT
Astronomical Twilight 5:47 AM EDT 9:06 PM EDT
Moon 2:48 PM EDT (9/22) No Moon Set
Length of Visible Light 13h 05m
Length of Day
12h 08m
Waxing Crescent, 48% of the Moon is Illuminated
Sep 22
Waxing Crescent
Sep 22
First Quarter
Sep 29
Full
Oct 8
Last Quarter
Oct 15
New

Hourly Weather History & Observations

Time (EDT) Temp. Windchill Dew Point Humidity Pressure Visibility Wind Dir Wind Speed Gust Speed Precip Events Conditions
12:53 AM 51.1 °F - 48.0 °F 89% 29.76 in 10.0 mi Calm Calm - N/A   Scattered Clouds
1:53 AM 51.1 °F - 48.0 °F 89% 29.73 in 10.0 mi SSW 3.5 mph - N/A   Mostly Cloudy
2:53 AM 50.0 °F - 48.0 °F 93% 29.73 in 10.0 mi Calm Calm - N/A   Mostly Cloudy
3:53 AM 48.9 °F - 46.9 °F 93% 29.74 in 9.0 mi West 8.1 mph - N/A   Mostly Cloudy
4:53 AM 48.9 °F - 46.9 °F 93% 29.73 in 10.0 mi SSW 8.1 mph - N/A   Scattered Clouds
5:53 AM 50.0 °F - 46.0 °F 86% 29.73 in 10.0 mi WSW 10.4 mph - N/A   Overcast
6:53 AM 50.0 °F - 45.0 °F 83% 29.76 in 10.0 mi WSW 12.7 mph 20.7 mph 0.00 in Rain Light Rain
7:53 AM 50.0 °F - 44.1 °F 80% 29.78 in 10.0 mi WSW 10.4 mph - 0.00 in   Overcast
8:53 AM 50.0 °F - 44.1 °F 80% 29.80 in 10.0 mi WSW 10.4 mph - N/A   Scattered Clouds
9:53 AM 52.0 °F - 45.0 °F 77% 29.82 in 10.0 mi WNW 16.1 mph 21.9 mph N/A   Mostly Cloudy
10:16 AM 53.6 °F - 44.6 °F 72% 29.81 in 10.0 mi WNW 12.7 mph - N/A   Scattered Clouds
10:53 AM 54.0 °F - 42.1 °F 64% 29.82 in 10.0 mi NW 11.5 mph - N/A   Clear
11:53 AM 55.9 °F - 41.0 °F 57% 29.83 in 10.0 mi WNW 10.4 mph - N/A   Scattered Clouds
12:53 PM 55.9 °F - 39.9 °F 55% 29.84 in 10.0 mi WNW 12.7 mph - N/A   Scattered Clouds
1:53 PM 57.0 °F - 37.9 °F 49% 29.85 in 10.0 mi NW 6.9 mph - N/A   Mostly Cloudy
2:53 PM 57.9 °F - 37.9 °F 47% 29.86 in 10.0 mi NW 10.4 mph - N/A   Partly Cloudy
3:53 PM 57.2 °F - 37.4 °F 48% 29.87 in 10.0 mi NW 12.7 mph - N/A   Mostly Cloudy
4:53 PM 60.1 °F - 39.9 °F 47% 29.90 in 10.0 mi NW 9.2 mph 16.1 mph N/A   Partly Cloudy
5:53 PM 57.9 °F - 39.0 °F 49% 29.94 in 10.0 mi WNW 13.8 mph - N/A   Clear
6:53 PM 55.0 °F - 39.9 °F 57% 29.98 in 10.0 mi NNW 18.4 mph 24.2 mph N/A   Scattered Clouds
7:53 PM 48.9 °F - 41.0 °F 74% 30.01 in 10.0 mi WNW 8.1 mph - 0.00 in   Clear
8:53 PM 46.9 °F - 39.9 °F 77% 30.04 in 10.0 mi WNW 8.1 mph - N/A   Clear
9:53 PM 46.0 °F 42.5 °F 39.9 °F 79% 30.05 in 10.0 mi WNW 6.9 mph - N/A   Clear
10:53 PM 43.0 °F 38.8 °F 39.0 °F 86% 30.07 in 10.0 mi West 6.9 mph - N/A   Clear
11:53 PM 43.0 °F 41.3 °F 37.9 °F 82% 30.08 in 10.0 mi WSW 3.5 mph - N/A   Partly Cloudy